Weather History for Fort Morgan, CO

Change the Weather History Date:

Thursday, October 3, 2013

  Actual Average (KAKO) Record (KAKO)
Temperature  
Mean Temperature 51 °F 55 °F  
Max Temperature 60 °F 69 °F 90 °F (1967)
Min Temperature 42 °F 41 °F 29 °F (1950)
Degree Days  
Heating Degree Days 14    
Month to date heating degree days  
Cooling Degree Days 0    
Month to date cooling degree days  
Growing Degree Days 1 (Base 50)    
Moisture  
Dew Point 42 °F    
Average Humidity 75    
Maximum Humidity 96    
Minimum Humidity 55    
Precipitation  
Precipitation 0.00 in 0.04 in 0.53 in (1984)
Month to date precipitation 0.12  
Year to date precipitation 14.77  
Sea Level Pressure  
Sea Level Pressure 29.84 in    
Wind  
Wind Speed 10 mph (NNE)    
Max Wind Speed 18 mph    
Max Gust Speed 23 mph    
Visibility 9 miles    
Events Rain    
T = Trace of Precipitation, MM = Missing Value Source: NWS Daily Summary

Daily Weather History Graph

Daily Weather History Graph

Search for Another Location

Airport:

Trip Planner

Search our weather history database for the weather conditions in past years. The results will help you decide how hot, cold, wet, or windy it might be!

Date:

Astronomy

Oct. 03, 2013 Rise Set
Actual Time 6:53 AM MDT 6:33 PM MDT
Civil Twilight 6:26 AM MDT 7:00 PM MDT
Nautical Twilight 5:55 AM MDT 7:32 PM MDT
Astronomical Twilight 5:23 AM MDT 8:03 PM MDT
Moon 5:29 AM MDT (10/3) 5:43 PM MDT (10/3)
Length of Visible Light 12h 34m
Length of Day
11h 39m
Waning Crescent, 2% of the Moon is Illuminated
Oct 3
Waning Crescent
Oct 4
New
Oct 11
First Quarter
Oct 18
Full
Oct 26
Last Quarter

Hourly Weather History & Observations

Time (MDT) Temp. Windchill Dew Point Humidity Pressure Visibility Wind Dir Wind Speed Gust Speed Precip Events Conditions
12:15 AM 49.5 °F - 36.5 °F 61% 29.92 in 10.0 mi North 5.8 mph - N/A   Clear
12:35 AM 50.0 °F - 36.5 °F 60% 29.91 in 10.0 mi North 9.2 mph - N/A   Clear
12:55 AM 48.2 °F - 36.9 °F 65% 29.92 in 10.0 mi NW 8.1 mph - N/A   Scattered Clouds
1:15 AM 48.7 °F - 36.7 °F 63% 29.92 in 10.0 mi NNW 8.1 mph - N/A   Scattered Clouds
1:35 AM 46.8 °F - 36.7 °F 68% 29.91 in 10.0 mi North 5.8 mph - N/A   Clear
1:55 AM 46.6 °F - 37.0 °F 69% 29.91 in 10.0 mi NNW 6.9 mph - N/A   Clear
2:15 AM 45.9 °F 41.7 °F 37.0 °F 71% 29.89 in 10.0 mi North 8.1 mph - N/A   Clear
2:35 AM 44.6 °F 39.7 °F 36.7 °F 74% 29.89 in 10.0 mi NNW 9.2 mph - N/A   Clear
2:55 AM 44.8 °F 40.4 °F 37.2 °F 75% 29.88 in 10.0 mi NNW 8.1 mph - N/A   Clear
3:15 AM 45.0 °F 41.8 °F 37.4 °F 75% 29.88 in 10.0 mi North 5.8 mph - N/A   Clear
3:35 AM 43.9 °F 39.3 °F 37.4 °F 78% 29.87 in 10.0 mi North 8.1 mph - N/A   Clear
3:55 AM 44.1 °F 39.5 °F 37.2 °F 77% 29.87 in 10.0 mi North 8.1 mph - N/A   Clear
4:15 AM 43.9 °F 39.3 °F 37.4 °F 78% 29.87 in 10.0 mi North 8.1 mph - N/A   Clear
4:35 AM 43.9 °F 39.3 °F 37.4 °F 78% 29.87 in 10.0 mi North 8.1 mph - N/A   Clear
4:55 AM 43.3 °F 38.1 °F 37.0 °F 78% 29.87 in 10.0 mi North 9.2 mph - N/A   Clear
5:15 AM 43.3 °F 38.1 °F 37.4 °F 80% 29.87 in 10.0 mi North 9.2 mph - N/A   Clear
5:35 AM 43.3 °F 38.1 °F 37.2 °F 79% 29.87 in 10.0 mi North 9.2 mph - N/A   Clear
5:55 AM 43.3 °F 38.1 °F 37.4 °F 80% 29.87 in 10.0 mi North 9.2 mph - N/A   Clear
6:15 AM 43.3 °F 38.1 °F 37.4 °F 80% 29.87 in 10.0 mi North 9.2 mph - N/A   Clear
6:35 AM 42.3 °F 36.8 °F 37.0 °F 82% 29.87 in 10.0 mi North 9.2 mph - N/A   Clear
6:55 AM 43.7 °F 38.1 °F 37.4 °F 78% 29.86 in 10.0 mi North 10.4 mph - N/A   Clear
7:15 AM 43.3 °F 37.7 °F 37.4 °F 80% 29.85 in 10.0 mi North 10.4 mph - N/A   Clear
7:35 AM 45.1 °F 40.3 °F 37.8 °F 75% 29.86 in 10.0 mi North 9.2 mph - N/A   Clear
7:55 AM 47.3 °F - 38.3 °F 71% 29.87 in 10.0 mi North 10.4 mph - N/A   Clear
8:15 AM 48.6 °F - 38.1 °F 67% 29.87 in 10.0 mi North 11.5 mph - N/A   Clear
8:35 AM 47.1 °F - 38.5 °F 72% 29.87 in 10.0 mi North 9.2 mph - N/A   Clear
8:55 AM 47.7 °F - 38.5 °F 70% 29.88 in 10.0 mi North 10.4 mph - N/A   Clear
9:15 AM 48.2 °F - 38.7 °F 70% 29.87 in 10.0 mi North 9.2 mph - N/A   Clear
9:35 AM 52.3 °F - 39.9 °F 63% 29.87 in 7.0 mi North 11.5 mph - N/A   Clear
9:55 AM 52.9 °F - 40.1 °F 62% 29.87 in 10.0 mi North 10.4 mph - N/A   Clear
10:15 AM 54.7 °F - 41.5 °F 61% 29.87 in 10.0 mi North 6.9 mph - N/A   Scattered Clouds
10:35 AM 55.8 °F - 42.1 °F 60% 29.87 in 10.0 mi North 4.6 mph - N/A   Mostly Cloudy
10:55 AM 56.5 °F - 42.6 °F 60% 29.87 in 10.0 mi NNE 4.6 mph - N/A   Scattered Clouds
11:15 AM 57.4 °F - 43.0 °F 59% 29.86 in 10.0 mi NE 6.9 mph - N/A   Scattered Clouds
11:35 AM 58.3 °F - 43.2 °F 57% 29.85 in 10.0 mi NNE 5.8 mph - N/A   Scattered Clouds
11:55 AM 58.6 °F - 43.5 °F 57% 29.84 in 10.0 mi NE 6.9 mph - N/A   Overcast
12:15 PM 59.2 °F - 44.1 °F 57% 29.83 in 10.0 mi ENE 9.2 mph 16.1 mph N/A   Mostly Cloudy
12:35 PM 60.6 °F - 44.2 °F 55% 29.83 in 10.0 mi ENE 9.2 mph 17.3 mph N/A   Scattered Clouds
12:55 PM 60.6 °F - 44.6 °F 56% 29.82 in 10.0 mi ENE 10.4 mph 19.6 mph N/A   Scattered Clouds
1:15 PM 59.4 °F - 44.2 °F 57% 29.81 in 10.0 mi ENE 8.1 mph - N/A   Mostly Cloudy
1:35 PM 59.4 °F - 44.6 °F 58% 29.81 in 10.0 mi NE 10.4 mph - N/A   Overcast
1:55 PM 59.5 °F - 45.1 °F 59% 29.80 in 10.0 mi NE 9.2 mph - N/A   Overcast
2:15 PM 60.1 °F - 46.0 °F 60% 29.79 in 10.0 mi ENE 16.1 mph - N/A   Overcast
2:35 PM 59.0 °F - 46.6 °F 63% 29.79 in 10.0 mi East 15.0 mph 20.7 mph N/A   Overcast
2:55 PM 59.2 °F - 46.8 °F 63% 29.78 in 10.0 mi ENE 13.8 mph 20.7 mph N/A   Overcast
3:15 PM 59.2 °F - 46.9 °F 64% 29.77 in 10.0 mi NE 17.3 mph - N/A   Overcast
3:35 PM 58.3 °F - 46.2 °F 64% 29.78 in 10.0 mi ENE 17.3 mph 23.0 mph N/A   Overcast
3:55 PM 56.8 °F - 46.2 °F 68% 29.78 in 10.0 mi ENE 16.1 mph - N/A   Overcast
4:15 PM 56.5 °F - 46.4 °F 69% 29.78 in 10.0 mi NE 13.8 mph - N/A   Overcast
4:35 PM 55.4 °F - 46.0 °F 71% 29.79 in 10.0 mi NE 15.0 mph - N/A   Overcast
4:55 PM 54.0 °F - 46.4 °F 76% 29.80 in 10.0 mi NE 15.0 mph 20.7 mph N/A   Overcast
5:15 PM 52.0 °F - 46.6 °F 82% 29.81 in 10.0 mi NE 13.8 mph - N/A   Overcast
5:35 PM 51.3 °F - 46.8 °F 85% 29.81 in 10.0 mi NE 11.5 mph - N/A   Overcast
5:55 PM 50.5 °F - 46.9 °F 87% 29.80 in 10.0 mi NE 16.1 mph - N/A   Overcast
6:15 PM 50.0 °F - 47.3 °F 90% 29.79 in 5.0 mi NE 18.4 mph - N/A   Overcast
6:35 PM 49.5 °F - 47.3 °F 92% 29.80 in 7.0 mi NE 16.1 mph - N/A   Overcast
6:55 PM 49.1 °F - 47.1 °F 93% 29.81 in 7.0 mi NE 15.0 mph 21.9 mph N/A   Overcast
7:15 PM 48.9 °F - 47.1 °F 93% 29.81 in 7.0 mi NE 17.3 mph 20.7 mph N/A   Overcast
7:35 PM 48.6 °F - 46.9 °F 94% 29.81 in 5.0 mi NNE 13.8 mph 17.3 mph N/A   Overcast
7:55 PM 48.4 °F - 46.9 °F 95% 29.82 in 5.0 mi NE 15.0 mph - N/A   Overcast
8:15 PM 48.6 °F - 47.3 °F 95% 29.83 in 5.0 mi NE 15.0 mph - N/A   Overcast
8:35 PM 48.6 °F - 47.3 °F 95% 29.83 in 4.0 mi NNE 11.5 mph - N/A   Overcast
8:55 PM 48.6 °F - 47.3 °F 95% 29.83 in 4.0 mi NNE 11.5 mph - N/A   Overcast
9:15 PM 48.6 °F - 47.3 °F 95% 29.82 in 4.0 mi NE 11.5 mph - N/A   Overcast
9:35 PM 48.4 °F - 47.3 °F 96% 29.82 in 4.0 mi NNE 16.1 mph - N/A   Overcast
10:35 PM 48.0 °F - 46.6 °F 95% 29.81 in 7.0 mi NNE 13.8 mph 19.6 mph N/A   Overcast
10:55 PM 47.8 °F - 46.4 °F 95% 29.82 in 10.0 mi NE 15.0 mph - N/A   Overcast
11:15 PM 47.5 °F - 46.0 °F 95% 29.81 in 5.0 mi NE 13.8 mph 19.6 mph N/A Rain Rain
11:35 PM 47.3 °F - 45.7 °F 94% 29.80 in 10.0 mi NE 16.1 mph - N/A   Light Drizzle
11:55 PM 46.9 °F - 45.5 °F 95% 29.79 in 10.0 mi NE 13.8 mph - N/A   Overcast